Regional Weather Roundup
Issued by NWS Sioux Falls, SD

Home | Current Version | Previous Version | Text Only | Print | Product List | Glossary On
Versions: 1 2 3 4 5 6 7 8 9 10 11 12 13 14 15 16 17 18 19 20 21 22 23 24 25 26 27 28 29 30 31 32 33 34 35 36 37 38 39 40 41 42 43 44 45 46 47 48 49 50
000
ASUS43 KFSD 060310
RWRFSD

WEATHER ROUNDUP FOR SE SOUTH DAKOTA/SW MINNESOTA/NW IOWA
NATIONAL WEATHER SERVICE SIOUX FALLS SD
900 PM CST FRI FEB 05 2016

NOTE: "FAIR" INDICATES FEW OR NO CLOUDS BELOW 12,000 FEET WITH NO
SIGNIFICANT WEATHER AND OR OBSTRUCTIONS TO VISIBILITY.


SDZ038>040-050-052>070-060400-
SOUTHEAST SOUTH DAKOTA

CITY           SKY/WX    TMP DP  RH WIND       PRES   REMARKS
BROOKINGS      FOG       19  19 100 SW3       30.17R VSB 1
CHAMBERLAIN    CLEAR     28  26  93 W8        30.20S WCI  20
HURON          CLEAR     26  23  88 SW8       30.19S WCI  18
MADISON        FOG       23  23 100 W3        30.18R VSB<1/4
MITCHELL       CLEAR     28  27  96 SW6       30.21S WCI  22
SIOUX FALLS    CLOUDY    27  25  92 NW3       30.20S
WINNER         FAIR      29  22  75 SW7       30.20F WCI  22
YANKTON        PTCLDY    30  25  80 NW6       30.23S WCI  24
$$

MNZ071-072-080-081-089-090-097-098-060400-
SOUTHWEST MINNESOTA

CITY           SKY/WX    TMP DP  RH WIND       PRES   REMARKS
FAIRMONT       CLOUDY    27  21  80 SW8       30.19R WCI  18
JACKSON        CLOUDY    28  25  86 SW9       30.19S FOG     WCI  20
LUVERNE        CLOUDY    30  27  86 W7        30.20S WCI  23
MARSHALL       PTCLDY    23  21  93 W8        30.19R WCI  14
MONTEVIDEO     CLOUDY    25  19  80 CALM      30.19S
PIPESTONE        N/A     23  16  74 W3        30.17R
REDWOOD FALLS  CLOUDY    27  23  85 W8        30.18S WCI  19
TRACY          CLOUDY    29  26  87 W3        30.17F
WINDOM         MOCLDY    27  25  93 W7        30.17S FOG     WCI  19
WORTHINGTON    MOCLDY    25  21  86 W10       30.18S WCI  15
$$

IAZ001>003-012>014-020>022-031-032-NEZ013-014-SDZ071-060400-
NORTHWEST IOWA

CITY           SKY/WX    TMP DP  RH WIND       PRES   REMARKS
CHEROKEE       CLOUDY    27  27  99 SW6       30.21S FOG     WCI  20
DENISON        CLOUDY    28  28 100 SW5       30.21R FOG     WCI  23
ESTHERVILLE    CLOUDY    26  24  92 SW13      30.19S FOG     WCI  15
LE MARS        CLOUDY    27  27 100 S3        30.23S FOG
ORANGE CITY    MOCLDY    25  25 100 CALM      30.20S FOG
SHELDON        CLOUDY    27  27 100 W7        30.19S FOG     WCI  19
SIOUX CITY     CLOUDY    29  25  85 CALM      30.23R FOG
SPENCER        CLOUDY    26  23  88 SW6       30.20S FOG     WCI  19
STORM LAKE     CLOUDY    28  28 100 SW10      30.20S FOG     WCI  19
$$

ABBREVIATIONS USED IN REMARKS
   TC - TEMPERATURE IN CELSIUS
  WCI - WIND CHILL INDEX
   HX - HEAT INDEX
  VSB - VISIBILITY




USA.gov is the U.S. government's official web portal to all federal, state and local government web resources and services.